sat.trackr.live / text

‹ back to catalog

KUIPER-00153

NORAD 65773 · 2025-217M

PAYLOAD ACTIVE UNKNOWN

§ Identity

Operator
Country
US
Launch date
2025-09-25
Launch site
AFETR
Launch vehicle
Mass (kg)
RCS (m²)

External: N2YO · Heavens-Above · Gunter

§ Orbital elements

Epoch: 2026-09-20T15:51:33.030144Z

Period
97.30 min
Inclination
51.9022°
Eccentricity
0.0000893
Mean motion
14.79926259 rev/d
Perigee alt
628.9 km
Apogee alt
630.2 km
Semi-major
7,007.7 km
B*
2.6252e-4
RAAN
243.5296°
Arg perigee
77.8299°
Mean anomaly
282.2764°
Rev number
5,399

§ Raw data

KUIPER-001531 65773U 25217M   26263.66079896  .00001780  00000+0  26252-3 0  99902 65773  51.9022 243.5296 0000893  77.8299 282.2764 14.79926259 53993

JSON: /api/v1/satellites/65773 · /tle

For live sub-satellite position, see the globe view (requires WebGL).

§ Visibility from observer

Set your observer location to see the next 7 days of passes ≥ 10°. The values pass through the URL so the page stays shareable.

No JS? Fill the form by hand. The geolocation button needs JavaScript.